Location: Shepherdstown, WV
(39.4326°N, 77.8042°W)
Time: 06:27:53
(UTC-04:00)

SR - Pass Details

Date: 04 August 2021
Orbit: 581 x 874 km, 66.7° (Epoch: 24 September)

Event Time Altitude Azimuth Distance (km) Brightness Sun altitude
Rises 05:34:17 0° 187° (S) 3,445 ? -7.7°
Reaches altitude 10° 05:36:54 10° 181° (S) 2,501 ? -7.3°
Maximum altitude 05:42:20 42° 112° (ESE) 1,188 ? -6.3°
Drops below altitude 10° 05:47:34 10° 43° (NE) 2,404 ? -5.4°
Sets 05:50:02 0° 37° (NE) 3,298 ? -5.0°
